Location: Lonauer Hammerh�tte
(51.6667°N, 10.3500°E)
Time: 07:21:07
(UTC+00:00)

Daily predictions for brighter satellites

Satellite Brightness Start Highest point End
(mag) Time Altitude Azimuth Time Altitude Azimuth Time Altitude Azimuth
COSMO-SKYMED 1 3.9 16:27:05 10° NE 16:30:15 19° E 16:33:24 10° SE
H-2A R/B 4.1 16:28:40 10° S 16:32:11 44° W 16:35:47 10° NNW
H-2A R/B 1.9 16:28:21 10° NNE 16:32:35 81° ESE 16:36:41 10° SSW
CORIOLIS 4.1 16:27:25 10° SSE 16:32:43 75° ENE 16:38:07 10° NNW
FengYun 1-2 T 4.3 16:28:19 10° SSE 16:33:53 62° ENE 16:39:26 10° N
Cosmos 1110 Rocket 4.3 16:29:52 10° S 16:34:52 47° ESE 16:39:52 10° NE
NOSS 2-2 (C) 4.4 16:31:08 10° NW 16:36:16 73° NE 16:43:26 10° SE
Timation 2 Rocket 4.1 16:32:12 10° NNW 16:38:47 78° NE 16:45:35 10° SE
Lacrosse 5 2.4 16:34:01 10° W 16:38:59 53° NNW 16:43:58 10° ENE
Cosmos 1825 Rocket 3.5 16:35:13 10° N 16:39:42 72° ENE 16:44:06 10° SSE
ADEOS Rocket 3.3 16:36:12 10° NNE 16:42:33 89° WNW 16:49:36 10° SSW
Cosmos 292 Rocket 4.3 16:39:44 10° S 16:44:09 38° ESE 16:48:38 10° NE
Envisat 3.8 16:39:10 10° S 16:44:10 57° W 16:49:12 10° NNW
Meteor 2-21 Rocket 4.5 16:38:15 10° N 16:44:26 68° ENE 16:50:32 10° SSE
Aureole 3 4.2 16:42:41 10° SE 16:44:50 18° E 16:46:55 10° NE
FALCON 9 DEB 3.2 16:42:12 10° W 16:45:38 68° N 16:48:52 11° E
Okean O Rocket 1.9 16:41:51 10° S 16:46:12 74° WSW 16:50:35 10° NNW
ERBS 3.4 16:44:56 10° W 16:48:03 35° N 16:51:08 10° ENE
YAOGAN 1 3.6 16:44:42 10° ESE 16:48:13 25° ENE 16:51:45 10° N
USA 281 3.7 16:42:30 10° SSE 16:49:03 70° WSW 16:55:39 10° NNW
Landsat 5 4.1 16:47:29 10° N 16:51:17 54° WNW 16:55:07 10° SSW
FALCON 9 DEB 4.4 16:50:21 10° SSW 16:53:00 24° SE 16:55:10 13° E
Cosmos 2219 3.2 16:48:20 10° NNW 16:54:07 67° ENE 16:59:51 10° SE
CZ-2C R/B 3.9 16:49:25 10° SE 16:54:34 35° ENE 16:59:34 10° N
Feng Yun 1-1 Rocket 4.4 16:48:42 10° SSE 16:54:34 70° ENE 17:00:29 10° NNW
SMAP 3.7 16:50:30 10° S 16:55:07 63° WSW 16:59:46 10° NNW
Cosmos 1455 4.2 16:55:42 10° ESE 16:56:10 11° E 16:56:10 11° E
Cosmos 1726 Rocket 3.7 16:53:57 10° S 16:58:10 52° E 17:02:27 10° NNE
Cosmos 1943 Rocket 4.1 16:53:54 10° W 16:58:19 24° NW 17:02:44 10° NNE
Cosmos 1758 Rocket 4.2 16:54:05 10° NNW 16:58:27 60° W 17:02:44 10° S
USA 307 2.9 16:56:39 10° WNW 17:00:58 77° NNE 17:04:41 13° E
Cosmos 1553 Rocket 4.5 16:55:34 10° SSE 17:01:17 37° E 17:06:56 10° NNE
Cosmos 2082 4.2 16:57:15 10° NNW 17:02:41 41° NE 17:08:05 10° ESE
CZ-4B R/B 1.2 17:01:18 10° NNE 17:04:34 72° ESE 17:07:43 10° S
FALCON 9 DEB 4.2 17:02:07 10° SSW 17:04:57 28° SE 17:06:44 17° E
Cosmos 2228 2.9 17:00:58 10° S 17:05:13 80° E 17:09:32 10° NNE
USA 308 2.9 17:01:29 10° WNW 17:05:48 79° NNE 17:09:20 15° ESE
Cosmos 1939 Rocket 2.8 17:02:06 10° SSE 17:06:01 61° ENE 17:09:53 10° N
ATLAS 5 CENTAUR R/B 3.3 17:04:42 10° W 17:08:33 28° NNW 17:12:57 10° NE
Cosmos 1452 Rocket 4.5 17:06:12 10° SW 17:11:18 48° WNW 17:16:27 10° NNE
Helios 1A Rocket 3.0 17:09:11 10° SSE 17:13:11 54° ENE 17:17:13 10° N
Cosmos 1606 Rocket 3.5 17:09:24 10° S 17:13:46 89° W 17:18:14 10° N
FALCON 9 DEB 3.9 17:13:35 10° SW 17:16:31 34° SSE 17:17:56 22° E
GENESIS II 4.2 17:12:34 10° SW 17:16:37 81° SE 17:20:07 14° NE
ARGOS 4.0 17:13:25 10° ESE 17:18:04 30° ENE 17:22:44 10° N
SKYMED 2 3.7 17:14:25 10° NNE 17:18:41 52° E 17:22:55 10° S
Okean-O 2.7 17:15:20 10° SSE 17:19:40 56° ENE 17:24:02 10° N
Cosmos 1689 Rocket 2.3 17:17:11 10° NNE 17:19:58 42° E 17:22:44 10° S
SL-08 R/B 4.4 17:14:24 10° N 17:20:35 65° ENE 17:26:39 10° SSE
Cosmos 1656 4.1 17:17:36 10° S 17:22:48 41° ESE 17:28:05 10° NE
Cosmos 1745 Rocket 4.1 17:17:36 10° N 17:23:45 52° ENE 17:29:54 10° SSE
Cosmos 1400 Rocket 2.8 17:21:26 10° S 17:25:29 60° E 17:29:32 10° NNE
PSLV R/B 4.1 17:22:52 10° NNE 17:26:58 51° E 17:31:01 10° S
H-2A R/B 2.5 17:22:27 10° SE 17:27:32 43° ENE 17:32:41 10° N
Cosmos 2227 Rocket 2.2 17:22:23 10° NNW 17:28:05 88° ENE 17:33:45 10° SSE
Ariane Rocket 4.3 17:27:38 20° ENE 17:28:29 20° NE 17:32:10 10° N
Cosmos 2058 3.1 17:24:39 10° N 17:28:37 45° ENE 17:32:34 10° SSE
GEOS 3 Rocket 3.7 17:24:32 14° ESE 17:29:09 65° NE 17:34:32 10° NW
CZ-4 R/B 1.2 17:26:09 10° SSE 17:29:59 62° ENE 17:33:48 10° N
Cosmos 1892 2.7 17:26:08 10° N 17:29:59 63° ENE 17:33:51 10° SSE
Cosmos 2263 Rocket 3.3 17:28:46 10° NNW 17:33:34 27° NE 17:35:33 22° ENE
Cosmos 1408 2.8 17:30:39 10° N 17:34:11 46° ENE 17:37:15 13° SSE
BREEZE-M DEB (TANK) 4.4 17:31:28 10° W 17:35:37 86° N 17:46:14 20° E
BREEZE-M R/B 3.8 17:27:32 10° W 17:35:47 65° S 17:37:09 30° ESE
CSL-04 Rocket 3.9 17:30:30 10° SE 17:35:50 51° ENE 17:41:10 10° N
NOSS 3-4 (A) 4.1 17:33:22 10° NW 17:39:52 50° NNE 17:44:11 24° E
NOSS 3-4 (C) 4.1 17:33:29 10° NW 17:39:58 50° NNE 17:44:16 24° E
CZ-4C R/B 3.6 17:34:33 10° NW 17:40:25 35° NNE 17:44:25 21° ENE
Meteor 2-1 Rocket 4.4 17:37:15 10° SSE 17:42:25 43° E 17:47:38 10° NNE
Cosmos 1300 3.6 17:40:11 10° SSW 17:43:54 51° WNW 17:47:39 10° N
Cosmos 2058 Rocket 3.2 17:42:40 10° SSW 17:47:10 82° W 17:51:43 10° N
Cosmos 1697 Rocket 3.2 17:42:21 10° S 17:47:24 36° ESE 17:49:37 26° ENE
SL-4 R/B 1.6 17:44:24 10° W 17:47:59 85° S 17:49:04 44° ESE
SeaSat 1 2.6 17:46:27 27° ESE 17:48:53 51° NE 17:53:41 10° NNW
Cosmos 1346 Rocket 2.6 17:44:55 10° N 17:48:56 77° ENE 17:52:56 10° SSE
CZ-2D R/B 3.7 17:45:12 10° S 17:48:58 63° WSW 17:52:46 10° NNW
CRYOSAT 2 4.5 17:46:08 10° NNE 17:50:53 50° E 17:55:36 10° SSE
Cosmos 1825 2.3 17:47:30 10° N 17:51:12 47° ENE 17:51:38 45° E
USA 305 3.0 17:47:21 10° WNW 17:51:39 72° SSW 17:53:27 34° SE
NOSS 3-3 (A) 4.4 17:46:47 10° S 17:52:07 37° ESE 17:54:18 29° E
NOSS 3-3 (C) 4.4 17:46:53 10° S 17:52:14 37° ESE 17:54:24 29° E
Cosmos 1709 Rocket 4.2 17:47:18 10° N 17:53:32 51° ENE 17:59:41 10° SSE
USA 215 3.4 17:51:39 27° E 17:55:21 64° NNE 18:01:49 10° WNW
Cosmos 44 3.4 17:51:13 10° SW 17:55:47 73° NW 17:59:04 20° NE
Cosmos 1315 Rocket 3.0 17:52:52 10° S 17:56:19 45° ESE 17:56:19 45° ESE
ERS-2 4.2 17:54:47 10° N 17:57:57 28° WNW 18:01:06 10° SW
USA 306 3.1 17:53:46 10° WNW 17:58:02 67° SSW 17:59:35 37° SE
SJ-11-01 4.1 17:54:06 10° SSE 17:58:44 71° ENE 18:03:25 10° N
BREEZE-M R/B 3.8 17:57:53 10° W 18:01:53 69° S 18:05:18 31° ESE
ATLAS 2AS CENTAUR R/B 3.1 17:54:32 10° NW 18:02:05 53° NNE 18:05:16 32° E
Cosmos 968 Rocket 4.0 17:58:11 10° NNW 18:03:21 62° WSW 18:08:27 10° S
Cosmos 1340 4.3 18:00:14 10° NNW 18:03:43 36° W 18:07:12 10° SSW
SJ 16-02 3.5 18:03:05 10° N 18:04:08 13° NNE 18:04:08 13° NNE
COSMO-SKYMED 1 3.2 18:02:29 10° N 18:06:46 57° WNW 18:11:01 10° SSW
HJ-1C 3.5 18:07:27 61° NNE 18:07:27 61° NNE 18:10:22 10° N
MOS 1 Rocket 3.3 18:02:59 10° NNE 18:07:34 57° E 18:12:23 10° S
Cosmos 2297 Rocket 3.4 18:02:27 10° NW 18:07:47 43° WSW 18:13:05 10° S
Cosmos 1076 Rocket 3.3 18:04:39 10° N 18:08:55 84° E 18:11:35 22° SSE
COSMOS 2455 4.5 18:05:37 10° NW 18:09:58 20° NNE 18:12:00 17° NE
Cosmos 1980 Rocket 3.7 18:05:20 10° SSE 18:07:19 20° SSE 18:07:19 20° SSE
Cosmos 1777 Rocket 4.3 18:05:29 10° NNW 18:10:28 43° ENE 18:10:51 42° ENE
Cosmos 883 Rocket 4.5 18:06:15 10° SSE 18:12:12 54° E 18:18:08 10° NNE
Aureole 3 Rocket 4.1 18:08:46 10° SSW 18:12:53 53° WNW 18:18:38 10° N
Cosmos 2315 Rocket 4.1 18:10:21 10° SSE 18:16:15 48° E 18:22:09 10° NNE
CSL-04 Debris 4.2 18:10:50 10° SSE 18:16:17 81° WSW 18:21:48 10° NNW
S3M 3.8 18:10:37 10° S 18:16:43 86° E 18:22:57 10° N
Cosmos 2227 4.4 18:15:49 10° NNW 18:21:16 47° NE 18:21:43 46° ENE
Resurs 01 Rocket 4.1 18:24:28 11° NNE 18:24:28 11° NNE 18:24:39 10° NNE
MetOp-A 4.4 18:22:01 45° ENE 18:22:01 45° ENE 18:26:55 10° N
Lacrosse 5 2.3 18:17:42 10° WNW 18:22:38 48° N 18:23:30 44° NE
FALCON 9 DEB 3.7 18:19:18 10° WNW 18:22:07 57° W 18:22:07 57° W
YAOGAN 1 3.6 18:19:57 10° S 18:24:06 46° W 18:28:18 10° NNW
FALCON 9 DEB 4.2 18:21:19 10° WSW 18:23:30 39° WSW 18:23:30 39° WSW
ERBS 3.8 18:21:43 10° WNW 18:24:02 30° NNW 18:24:02 30° NNW
Cosmos 2360 4.2 18:20:39 10° S 18:26:11 53° ESE 18:26:15 53° ESE
FALCON 9 DEB 4.5 18:25:32 10° WSW 18:27:31 35° WSW 18:27:31 35° WSW
Cosmos 1812 Rocket 3.8 18:27:09 10° S 18:35:44 11° N 18:35:57 10° N
Cosmos 1455 3.0 18:28:34 10° SSW 18:31:13 42° SW 18:31:13 42° SW
CZ-2C R/B 4.1 18:28:40 10° S 18:34:17 50° W 18:39:44 10° NNW
Meteor 2-3 Rocket 3.8 18:29:20 10° N 18:34:44 54° ENE 18:34:44 54° ENE
USA 307 3.8 18:36:50 10° WNW 18:40:52 41° SW 18:40:52 41° SW
USA 308 4.0 18:41:41 10° WNW 18:45:31 38° SW 18:45:31 38° SW
Meteor 2-10 Rocket 4.1 18:40:43 10° SSW 18:45:54 56° WNW 18:50:57 10° N
Cosmos 2278 Rocket 4.4 18:50:55 10° N 18:53:25 13° NNE 18:53:39 13° NNE
ATLAS 5 CENTAUR R/B 3.6 18:50:51 10° NW 18:54:42 22° N 18:55:01 22° NNE
Cosmos 2151 4.2 18:53:21 10° NNW 18:56:04 37° NNW 18:56:04 37° NNW
ARGOS 3.8 18:54:41 22° S 18:58:05 54° W 19:03:26 10° NNW
Cosmos 1992 Rocket 4.3 18:52:56 10° SW 18:58:05 63° WNW 18:59:48 41° N
SL-08 RB Rocket 4.3 19:00:38 53° NW 19:00:38 53° NW 19:04:21 10° NNW
Cosmos 2369 3.7 18:57:21 10° SSW 19:03:05 82° WNW 19:03:11 82° NW
CZ-4 R/B 4.3 19:03:12 10° SW 19:05:25 15° W 19:07:37 10° NW
Geosat 4.3 19:06:43 64° NW 19:06:47 64° NW 19:11:45 10° SW
Ariane Rocket 3.4 19:07:50 59° NNW 19:07:50 59° NNW 19:12:02 10° NNW
Cosmos 1844 Rocket 4.1 19:01:57 10° NNW 19:05:18 26° NNE 19:05:18 26° NNE
H-2A R/B 3.5 19:02:04 10° SSW 19:07:03 36° W 19:12:05 10° NNW
Cosmos 2263 Rocket 2.5 19:12:26 10° NNW 19:17:16 64° NW 19:17:16 64° NW
SeaSat 1 3.9 19:26:15 32° WSW 19:26:35 32° WSW 19:31:01 10° NW
CZ-4C R/B 2.9 19:23:10 10° NW 19:29:36 71° NNE 19:29:36 71° NNE
NOSS 3-4 (A) 4.0 19:24:17 10° NW 19:31:07 63° SW 19:31:39 61° SSW
NOSS 3-4 (C) 4.0 19:24:24 10° NW 19:31:14 63° SW 19:31:43 62° SSW
Cosmos 1697 Rocket 3.4 19:25:49 10° SW 19:31:15 49° NW 19:31:25 49° NW
Cosmos 2184 Rocket 4.4 19:26:09 10° N 19:31:04 57° NNW 19:31:04 57° NNW
USA 215 3.4 19:39:00 67° WSW 19:39:00 67° WSW 19:44:55 10° WNW
NOSS 3-3 (A) 4.5 19:36:42 10° WSW 19:41:47 57° WNW 19:41:47 57° WNW
NOSS 3-3 (C) 4.5 19:36:48 10° WSW 19:41:54 57° WNW 19:41:54 57° WNW
SJ 16-02 4.1 19:40:29 10° NNW 19:41:07 14° NNW 19:41:07 14° NNW
ATLAS 2AS CENTAUR R/B 3.2 19:45:54 10° NW 19:52:43 57° WSW 19:52:43 57° WSW
Cosmos 1980 Rocket 4.5 19:48:19 10° SW 19:49:11 15° SW 19:49:11 15° SW
COSMOS 2455 4.4 19:51:56 10° NNW 19:55:08 28° N 19:55:08 28° N
Lacrosse 5 4.1 20:00:53 10° WNW 20:02:41 22° WNW 20:02:41 22° WNW
